Starlink 30127

operational
NORAD ID: 56699 Int'l Des: 2023-067 Owner: SPXS Country: US Constellation: starlink
LEOCIRCULAR

Über Starlink 30127

Beschreibung wird geladen...

Live-Position

3D-Globus wird geladen...

Nächste Überflüge

Höhenverlauf

Altitude vs Time

uPlot chart will show altitude changes over time

Zweizeiliger Elementsatz

1 56699U 23067M 25258.42100603 .00000243 00000-0 33068-4 0 9994
2 56699 43.0029 146.9476 0001208 263.8925 96.1779 15.02535948129292
Epoch: 15. Sept. 2025 • Age: 23 hours

Aktueller Status

Höhe 559.2 km
Geschwindigkeit 7.59 km/s
Subsatellitenpunkt 23.31°N, 162.59°E
Startdatum 19. Mai 2023
Alter 2.3 years
Typ internet

Technische Details

Klassifizierung Payload
Masse 730.00 kg
Trockenmasse 700.00 kg
Gesamtmasse 730.00 kg
Länge 0.30 m
Durchmesser 4.10 m
Spannweite 29.00 m
Form Box + pan
Hersteller SPXS
Bus-Typ Starlink V2M
Phasenstatus In Orbit
Besitzer/Staat SPXS/US

Große Konstellationen

Loading constellations...